Content
SEND FEEDBACK

Daily
Averages
Monthly
Summary
United States of America

PEARL, NEW MEXICO


Home > North America > United States > New Mexico
Elevation: 3735 feet     Latitude: 32 39N     Longitude: 103 23W

WEATHER
 
SELECT A DAY
Number of Records: 125,085;   Date Range: 1/1/95 - 10/29/14
 
SHARE

PRINT THIS DATA

[ ← Previous Day ]
WEATHER ALMANAC - JANUARY 23, 2013
[ Next Day → ]
[ °C ]   °F
Weather ElementAverageHighLow
Temperature47.4 °F71.6 °F (1:50 pm)30.2 °F (3:15 am)
Dewpoint18.8 °F32 °F (1:15 am)8.6 °F (1:50 pm)
Humidity41 %87 % (2:35 am)9 % (1:50 pm)
Barometer30.21 in30.29 in (9:50 am)30.18 in (3:50 pm)
Wind Speed6.4 mph15 mph (2:50 pm)
Weather ElementAverage
Visibility10 mi
Wind DirectionSSW (186.1 °)

Weather ElementTotal
Precipitation---
Heating Degree Days14.1 (Base 65)
Growing Degree Days0.9 (Base 50)
Averaged from 44 records on January 23, 2013
WEATHER CONDITIONS BREAKOUT
WIND DIRECTION BREAKOUT
WEATHER BY HOUR - JANUARY 23, 2013
[ °C ]   °F
Local TimeTemperatureDewpointHumidityBarometerVisibilityWind DirectionWind SpeedGust SpeedPrecipitationEventsConditions
12:35 AM39.2 °F30.2 °F70 %30.19 in10.0 miSW (220°)8.1 mphClear
12:55 AM35.6 °F28.4 °F75 %30.19 in10.0 miSW (230°)5.8 mphClear
1:15 AM39.2 °F32.0 °F75 %30.19 in10.0 miSW (230°)5.8 mphClear
1:35 AM37.4 °F32.0 °F81 %30.19 in10.0 miSSW (210°)3.5 mphClear
1:55 AM37.4 °F32.0 °F81 %30.19 in10.0 miSSW (200°)4.6 mphClear
2:15 AM37.4 °F32.0 °F81 %30.19 in10.0 miSSW (210°)6.9 mphClear
2:35 AM32.0 °F28.4 °F87 %30.20 in10.0 miWSW (250°)4.6 mphClear
2:55 AM32.0 °F26.6 °F80 %30.20 in10.0 miCalmClear
3:15 AM30.2 °F26.6 °F86 %30.20 in10.0 miCalmClear
3:35 AM32.0 °F26.6 °F80 %30.19 in10.0 miCalmClear
3:55 AM32.0 °F26.6 °F80 %30.20 in10.0 miCalmClear
5:50 AM32.0 °F21.2 °F64 %30.22 in10.0 miWest (270°)6.9 mphClear
6:50 AM32.0 °F19.4 °F60 %30.24 in10.0 miCalmClear
7:50 AM35.6 °F24.8 °F65 %30.25 in10.0 miCalmClear
8:45 AM53.6 °F14.0 °F21 %30.27 in10.0 miWest (280°)11.5 mphClear
9:50 AM62.6 °F14.0 °F15 %30.29 in10.0 miWest (270°)5.8 mphClear
10:50 AM66.2 °F14.0 °F13 %30.29 in10.0 miCalmClear
11:50 AM68.0 °F10.4 °F11 %30.25 in10.0 miSSW (210°)10.4 mphClear
12:50 PM69.8 °F10.4 °F10 %30.22 in10.0 miSW (220°)11.5 mphClear
1:50 PM71.6 °F8.6 °F9 %30.20 in10.0 miSSW (210°)11.5 mphClear
2:50 PM71.6 °F8.6 °F9 %30.19 in10.0 miSSW (210°)15.0 mphClear
3:50 PM71.6 °F12.2 °F10 %30.18 in10.0 miSSW (210°)15.0 mphClear
4:50 PM62.6 °F12.2 °F14 %30.19 in10.0 miSSW (210°)8.1 mphClear
5:15 PM62.6 °F12.2 °F14 %30.19 in10.0 miSSW (210°)5.8 mphClear
5:35 PM60.8 °F10.4 °F14 %30.19 in10.0 miSSW (210°)4.6 mphClear
5:50 PM57.2 °F12.2 °F17 %30.19 in10.0 miSSW (200°)5.8 mphClear
5:55 PM57.2 °F12.2 °F17 %30.19 in10.0 miSSW (200°)5.8 mphClear
6:15 PM55.4 °F14.0 °F20 %30.20 in10.0 miSSW (200°)4.6 mphClear
6:35 PM51.8 °F14.0 °F22 %30.20 in10.0 miSSW (210°)4.6 mphClear
6:55 PM50.0 °F14.0 °F24 %30.20 in10.0 miSW (220°)5.8 mphClear
7:15 PM48.2 °F14.0 °F25 %30.20 in10.0 miSW (230°)6.9 mphClear
7:35 PM44.6 °F14.0 °F29 %30.20 in10.0 miSW (230°)6.9 mphClear
7:55 PM42.8 °F15.8 °F34 %30.21 in10.0 miWSW (240°)6.9 mphClear
8:15 PM44.6 °F15.8 °F31 %30.21 in10.0 miSW (230°)9.2 mphClear
8:35 PM44.6 °F15.8 °F31 %30.21 in10.0 miNorthClear
8:55 PM44.6 °F17.6 °F34 %30.22 in10.0 miSW (220°)10.4 mphClear
9:15 PM44.6 °F17.6 °F34 %30.22 in10.0 miSW (230°)8.1 mphClear
9:55 PM44.6 °F19.4 °F37 %30.22 in10.0 miSW (230°)8.1 mphClear
10:15 PM42.8 °F19.4 °F39 %30.22 in10.0 miWSW (250°)6.9 mphClear
10:35 PM44.6 °F19.4 °F37 %30.22 in10.0 miWSW (240°)5.8 mphClear
10:55 PM41.0 °F19.4 °F42 %30.22 in10.0 miSW (230°)6.9 mphClear
11:15 PM41.0 °F19.4 °F42 %30.22 in10.0 miWSW (250°)6.9 mphClear
11:35 PM41.0 °F19.4 °F42 %30.22 in10.0 miWest (260°)10.4 mphClear
11:55 PM41.0 °F19.4 °F42 %30.22 in10.0 miWest (260°)10.4 mphClear
Hourly data recorded from KHOB, located miles away from Pearl, New Mexico







STORIES FROM OUR PARTNERS